When you browse on this site, cookies collect data to enhance your experience and personalize the content and advertising you see.
Visit our Privacy Policy to learn more. By continuing to use the site, you agree to this use of cookies and data.
  • In Czech Republic
  • List of Countries
  • For 7 days
  • Water Temperature
  • Satellite Maps
  • Weather Map
  • Weather Widgets
  • user-avatar
    Login

    Hourly Weather Gwatemala

    Today, 16 December, Sunday

    Time Temperature Precipitation Wind Pressure Humidity
    00:00 +13°C° 0 mm 3 mps 640 mmHg 82%
    01:00 +12°C° 0 mm 3 mps 639 mmHg 83%
    02:00 +12°C° 0 mm 3 mps 639 mmHg 83%
    03:00 +13°C° 0 mm 2 mps 639 mmHg 84%
    04:00 +13°C° 0 mm 2 mps 639 mmHg 84%
    05:00 +13°C° 0 mm 2 mps 639 mmHg 83%
    06:00 +12°C° 0 mm 3 mps 639 mmHg 83%
    07:00 +13°C° 0 mm 3 mps 640 mmHg 78%
    08:00 +16°C° 0 mm 3 mps 640 mmHg 74%
    09:00 +17°C° 0 mm 3 mps 641 mmHg 69%
    10:00 +19°C° 0 mm 3 mps 641 mmHg 62%
    11:00 +20°C° 0 mm 2 mps 641 mmHg 56%
    12:00 +23°C° 0 mm 2 mps 642 mmHg 49%
    13:00 +23°C° 0 mm 2 mps 641 mmHg 50%
    14:00 +23°C° 0 mm 2 mps 641 mmHg 51%
    15:00 +22°C° 0 mm 3 mps 640 mmHg 52%
    16:00 +20°C° 0 mm 2 mps 640 mmHg 61%
    17:00 +18°C° 0 mm 2 mps 639 mmHg 70%
    18:00 +16°C° 0 mm 2 mps 639 mmHg 79%
    19:00 +15°C° 0 mm 2 mps 639 mmHg 80%
    20:00 +15°C° 0 mm 2 mps 639 mmHg 81%
    21:00 +14°C° 0 mm 2 mps 639 mmHg 83%
    22:00 +14°C° 0 mm 2 mps 639 mmHg 83%
    23:00 +14°C° 0 mm 2 mps 639 mmHg 83%

    Tomorrow, 17 December, Monday

    Time Temperature Precipitation Wind Pressure Humidity
    00:00 +14°C° 0 mm 2 mps 639 mmHg 83%
    01:00 +13°C° 0 mm 2 mps 639 mmHg 83%
    02:00 +13°C° 0 mm 2 mps 638 mmHg 83%
    03:00 +13°C° 0 mm 2 mps 638 mmHg 83%
    04:00 +13°C° 0 mm 2 mps 638 mmHg 83%
    05:00 +13°C° 0 mm 2 mps 638 mmHg 83%
    06:00 +13°C° 0 mm 2 mps 638 mmHg 83%
    07:00 +15°C° 0 mm 2 mps 639 mmHg 76%
    08:00 +17°C° 0 mm 2 mps 640 mmHg 68%
    09:00 +19°C° 0 mm 2 mps 641 mmHg 61%
    10:00 +21°C° 0 mm 2 mps 641 mmHg 55%
    11:00 +24°C° 0 mm 2 mps 642 mmHg 49%
    12:00 +26°C° 0 mm 2 mps 642 mmHg 43%
    13:00 +25°C° 0 mm 2 mps 641 mmHg 44%
    14:00 +25°C° 0 mm 2 mps 641 mmHg 45%
    15:00 +25°C° 0 mm 2 mps 640 mmHg 46%
    16:00 +23°C° 0 mm 2 mps 639 mmHg 57%
    17:00 +19°C° 0 mm 2 mps 639 mmHg 67%
    18:00 +18°C° 0 mm 1 mps 638 mmHg 77%
    19:00 +16°C° 0 mm 2 mps 638 mmHg 80%
    20:00 +16°C° 0 mm 2 mps 639 mmHg 83%
    21:00 +15°C° 0 mm 2 mps 639 mmHg 85%
    22:00 +15°C° 0 mm 2 mps 639 mmHg 86%
    23:00 +15°C° 0 mm 2 mps 639 mmHg 86%

    Day after tomorrow, 18 December, Tuesday

    Time Temperature Precipitation Wind Pressure Humidity
    00:00 +15°C° 0 mm 2 mps 638 mmHg 86%
    01:00 +15°C° 0 mm 2 mps 638 mmHg 86%
    02:00 +14°C° 0 mm 2 mps 638 mmHg 85%
    03:00 +14°C° 0 mm 2 mps 637 mmHg 85%
    04:00 +14°C° 0 mm 2 mps 637 mmHg 85%
    05:00 +14°C° 0 mm 2 mps 637 mmHg 85%
    06:00 +14°C° 0 mm 1 mps 637 mmHg 85%
    07:00 +16°C° 0 mm 1 mps 638 mmHg 77%
    08:00 +19°C° 0 mm 1 mps 639 mmHg 69%
    09:00 +21°C° 0 mm 1 mps 640 mmHg 61%
    10:00 +23°C° 0 mm 1 mps 641 mmHg 55%
    11:00 +25°C° 0 mm 1 mps 641 mmHg 48%
    12:00 +27°C° 0 mm 1 mps 641 mmHg 41%
    13:00 +27°C° 0 mm 1 mps 640 mmHg 44%
    14:00 +26°C° 0 mm 2 mps 639 mmHg 46%
    15:00 +25°C° 0 mm 2 mps 638 mmHg 48%
    16:00 +23°C° 0 mm 1 mps 638 mmHg 58%
    17:00 +20°C° 0 mm 1 mps 637 mmHg 69%
    18:00 +18°C° 0 mm 1 mps 637 mmHg 79%
    19:00 +18°C° 0 mm 1 mps 637 mmHg 82%
    20:00 +16°C° 0 mm 1 mps 637 mmHg 84%
    21:00 +15°C° 0 mm 1 mps 638 mmHg 87%
    22:00 +15°C° 0 mm 1 mps 638 mmHg 87%
    23:00 +15°C° 0 mm 1 mps 637 mmHg 88%

    19 December, Wednesday

    Time Temperature Precipitation Wind Pressure Humidity
    00:00 +15°C° 0 mm 1 mps 637 mmHg 88%
    01:00 +14°C° 0 mm 1 mps 637 mmHg 87%
    02:00 +14°C° 0 mm 1 mps 636 mmHg 87%
    03:00 +14°C° 0 mm 1 mps 636 mmHg 87%
    04:00 +14°C° 0 mm 1 mps 636 mmHg 87%
    05:00 +14°C° 0 mm 1 mps 636 mmHg 88%
    06:00 +14°C° 0 mm 1 mps 636 mmHg 88%
    07:00 +18°C° 0 mm 1 mps 637 mmHg 77%
    08:00 +20°C° 0 mm 1 mps 639 mmHg 67%
    09:00 +23°C° 0 mm 1 mps 640 mmHg 56%
    10:00 +24°C° 0 mm 1 mps 640 mmHg 51%
    11:00 +26°C° 0 mm 1 mps 640 mmHg 45%
    12:00 +27°C° 0 mm 2 mps 640 mmHg 40%
    13:00 +27°C° 0 mm 2 mps 639 mmHg 41%
    14:00 +26°C° 0 mm 2 mps 638 mmHg 42%
    15:00 +26°C° 0 mm 2 mps 637 mmHg 42%
    16:00 +24°C° 0 mm 2 mps 637 mmHg 53%
    17:00 +21°C° 0 mm 1 mps 636 mmHg 64%
    18:00 +19°C° 0 mm 1 mps 636 mmHg 74%
    19:00 +18°C° 0 mm 1 mps 636 mmHg 78%
    20:00 +16°C° 0 mm 1 mps 636 mmHg 83%
    21:00 +15°C° 0 mm 1 mps 636 mmHg 87%
    22:00 +15°C° 0 mm 1 mps 636 mmHg 87%
    23:00 +15°C° 0 mm 1 mps 636 mmHg 88%

    20 December, Thursday

    Time Temperature Precipitation Wind Pressure Humidity
    00:00 +14°C° 0 mm 1 mps 636 mmHg 88%
    01:00 +14°C° 0 mm 1 mps 636 mmHg 86%
    02:00 +14°C° 0 mm 1 mps 635 mmHg 85%
    03:00 +14°C° 0 mm 1 mps 635 mmHg 83%
    04:00 +14°C° 0 mm 1 mps 635 mmHg 82%
    05:00 +13°C° 0 mm 1 mps 635 mmHg 80%
    06:00 +13°C° 0 mm 1 mps 636 mmHg 79%
    07:00 +16°C° 0 mm 1 mps 637 mmHg 67%
    08:00 +19°C° 0 mm 0 mps 639 mmHg 55%
    09:00 +22°C° 0 mm 0 mps 640 mmHg 44%
    10:00 +23°C° 0 mm 0 mps 640 mmHg 40%
    11:00 +27°C° 0 mm 1 mps 640 mmHg 36%
    12:00 +28°C° 0 mm 1 mps 640 mmHg 32%
    13:00 +28°C° 0 mm 1 mps 639 mmHg 34%
    14:00 +27°C° 0 mm 1 mps 639 mmHg 36%
    15:00 +26°C° 0 mm 2 mps 638 mmHg 37%
    16:00 +24°C° 0 mm 1 mps 637 mmHg 46%
    17:00 +21°C° 0 mm 1 mps 637 mmHg 55%
    18:00 +19°C° 0 mm 1 mps 637 mmHg 64%
    19:00 +18°C° 0 mm 1 mps 637 mmHg 70%
    20:00 +16°C° 0 mm 1 mps 637 mmHg 76%
    21:00 +16°C° 0 mm 2 mps 638 mmHg 81%
    22:00 +16°C° 0 mm 2 mps 638 mmHg 83%
    23:00 +16°C° 0 mm 2 mps 638 mmHg 85%

    21 December, Friday

    Time Temperature Precipitation Wind Pressure Humidity
    00:00 +16°C° 0 mm 2 mps 637 mmHg 87%
    01:00 +15°C° 0 mm 2 mps 637 mmHg 86%
    02:00 +15°C° 0 mm 2 mps 637 mmHg 85%
    03:00 +15°C° 0 mm 2 mps 637 mmHg 85%
    04:00 +15°C° 0 mm 2 mps 637 mmHg 85%
    05:00 +15°C° 0 mm 2 mps 637 mmHg 85%
    06:00 +15°C° 0 mm 2 mps 637 mmHg 85%
    07:00 +15°C° 0 mm 2 mps 638 mmHg 80%
    08:00 +16°C° 0 mm 3 mps 639 mmHg 76%
    09:00 +17°C° 0 mm 3 mps 640 mmHg 71%
    10:00 +18°C° 0 mm 3 mps 640 mmHg 64%
    11:00 +20°C° 0 mm 3 mps 640 mmHg 58%
    12:00 +21°C° 0 mm 3 mps 640 mmHg 51%
    13:00 +21°C° 0 mm 3 mps 639 mmHg 51%
    14:00 +21°C° 0 mm 3 mps 639 mmHg 50%
    15:00 +21°C° 0 mm 3 mps 639 mmHg 50%
    16:00 +19°C° 0 mm 2 mps 638 mmHg 57%
    17:00 +17°C° 0 mm 2 mps 638 mmHg 64%
    18:00 +15°C° 0 mm 2 mps 638 mmHg 71%
    19:00 +14°C° 0 mm 2 mps 638 mmHg 74%
    20:00 +14°C° 0 mm 2 mps 638 mmHg 77%
    21:00 +12°C° 0 mm 3 mps 638 mmHg 81%
    22:00 +13°C° 0 mm 2 mps 638 mmHg 81%
    23:00 +12°C° 0 mm 2 mps 638 mmHg 82%
    Show more